STARLINK-36175, 67012

Orbit data source: Space-Track

STARLINK-36175, 67012 is a payload satellite owned by SpaceX/Seattle (US) in LEO that was launched on Wed, 10 Dec 2025 UTC via an FALCON 9 launch vehicle from the Air Force Western Test Range (AFWTR). Payload-class satellites include a variety of spacecraft equipped with specific instruments for various scientific and technological missions. These include communications satellites like Starlink; space stations such as the ISS; scientific satellites like the Hubble; Earth observation satellites from companies like Planet Labs, Umbra, and HawkEye 360; GPS; miniature CubeSats for education and research; and military/defense satellites.

Loading next visibility...
Identifier
67012, 2025-293K
Orbit
LEO
Country
Flag of USUS
Related business
Manufacturer
SpaceX/Seattle
Mission
Operational Commercial Communications
Bus & Motor
STARLINK V2MO, Unknown motor
Mass
575 kg wet, ~530 kg dry
Launch date (UTC)
2025-12-10 (6 months ago)
Launch vehicle
FALCON 9
Launch site
Air Force Western Test Range (AFWTR)
Object type
Payload
Rocket body
Debris
Shape & HBR
Box + 2 Pan, 17.7 m
Radar Cross Section
36.964 m², Large (>1 m²)

Expand to show TLE details & history
Last TLE update: 11 hours ago

TLE from 11 hours ago
0 STARLINK-36175
1 67012U 25293K   26171.43438073  .00002117  00000-0  18514-3 0  9999
2 67012  70.0004 195.5717 0004003 266.3865  93.6836 14.98335603 30276
Epoch: 2026-06-20T10:25Z
TLE epoch observation values (Epoch: 2026-06-20T10:25:30.495Z)
Latitude
-0.00003°
Longitude
130.54557°
Altitude
574.642 km
Speed
7.574 km/s
True Right ascension
13h 02m 17s
True Declination
0° 00' 00"
Sunlit
Object was in daylight at epoch
Visualization orbit readout
Latitude
Unknown
Longitude
Unknown
Altitude
Unknown
Speed
Unknown
Apparent Right ascension
Unknown
Apparent Declination
Unknown
Sunlit
N/A
Visualization observer readout
Local Sidereal Time
08:32:44
Azimuth
Unknown
Elevation
Unknown
Doppler factor
Unknown
Orbital elements
Apogee altitude
572.768 km
Perigee altitude
567.205 km
Semi-major axis
6,948.124 km
Eccentricity
0.0004
Inclination
70.0004°
RAAN
195.5717°
Arg. of periapsis
266.3865°
True anomaly
93.72937°
Mean anomaly
93.6836°
Eccentric anomaly
93.70649°
Mean motion
3.7475 °/min
Orbital period
96.06 mins
BSTAR
0.00018514
Loading maneuver chart data...
Computing Atmospheric mass density...
Loading historical data...
Loading historical data...
Loading historical data...
Loading historical data...
Loading historical data...
Loading historical data...
Loading historical data...

Documentation

Showing up to 5 results
|